| time (UTC) | temp F | wind direction | speed knots | gust knots | rain 1hr in | rain 24hr in | rain mn in | humidity % | barometer mb |
| 20260505040318 | 63 | 236 | 0.0 | 0.0 | 0.00 | 0.00 | 0.00 | 68 | 1008.8 |
| 20260505035816 | 64 | 236 | 0.0 | 0.0 | 0.00 | 0.00 | 0.00 | 68 | 1008.8 |
| 20260505035317 | 64 | 236 | 0.0 | 0.0 | 0.00 | 0.00 | 0.00 | 68 | 1008.8 |
| 20260505035045 | 65 | 236 | 0.0 | 0.0 | 0.00 | 0.00 | 0.00 | 68 | 1008.7 |
| 20260505034318 | 65 | 236 | 0.0 | 0.0 | 0.00 | 0.00 | 0.00 | 67 | 1008.6 |
| 20260505033816 | 65 | 236 | 0.0 | 0.0 | 0.00 | 0.00 | 0.00 | 66 | 1008.5 |
| 20260505033541 | 66 | 236 | 0.0 | 0.0 | 0.00 | 0.00 | 0.00 | 66 | 1008.4 |
| 20260505032818 | 66 | 236 | 0.0 | 0.0 | 0.00 | 0.00 | 0.00 | 65 | 1008.4 |
| 20260505032315 | 67 | 236 | 0.0 | 0.0 | 0.00 | 0.00 | 0.00 | 65 | 1008.4 |
| 20260505031818 | 67 | 236 | 0.0 | 0.0 | 0.00 | 0.00 | 0.00 | 64 | 1008.3 |
| 20260505031307 | 68 | 236 | 0.0 | 0.0 | 0.00 | 0.00 | 0.00 | 62 | 1008.3 |
| 20260505030807 | 68 | 236 | 0.0 | 0.0 | 0.00 | 0.00 | 0.00 | 62 | 1008.3 |
| 20260505030524 | 69 | 236 | 0.0 | 0.0 | 0.00 | 0.00 | 0.00 | 61 | 1008.2 |
| 20260505030019 | 69 | 192 | 0.0 | 0.0 | 0.00 | 0.00 | 0.00 | 61 | 1008.1 |
| 20260505025247 | 70 | 192 | 0.0 | 0.0 | 0.00 | 0.00 | 0.00 | 60 | 1008.1 |
| 20260505024743 | 70 | 192 | 0.0 | 0.0 | 0.00 | 0.00 | 0.00 | 56 | 1008.0 |
| 20260505024235 | 71 | 192 | 0.0 | 0.0 | 0.00 | 0.00 | 0.00 | 55 | 1008.0 |
| 20260505023729 | 71 | 125 | 0.0 | 0.0 | 0.00 | 0.00 | 0.00 | 54 | 1008.0 |
| 20260505023219 | 72 | 125 | 0.0 | 0.0 | 0.00 | 0.00 | 0.00 | 51 | 1008.0 |
| 20260505022716 | 72 | 125 | 0.0 | 0.0 | 0.00 | 0.00 | 0.00 | 53 | 1007.9 |
| 20260505022207 | 73 | 125 | 0.0 | 0.0 | 0.00 | 0.00 | 0.00 | 48 | 1007.9 |
| 20260505021707 | 73 | 125 | 0.0 | 0.0 | 0.00 | 0.00 | 0.00 | 48 | 1007.9 |
| 20260505021159 | 73 | 125 | 0.0 | 0.0 | 0.00 | 0.00 | 0.00 | 46 | 1007.9 |
| 20260505020652 | 74 | 125 | 0.0 | 0.0 | 0.00 | 0.00 | 0.00 | 47 | 1007.9 |
| 20260505020144 | 74 | 125 | 0.0 | 0.0 | 0.00 | 0.00 | 0.00 | 44 | 1007.9 |
| 20260505015640 | 74 | 125 | 0.0 | 0.9 | 0.00 | 0.00 | 0.00 | 41 | 1008.0 |
| 20260505015135 | 74 | 163 | 0.0 | 0.9 | 0.00 | 0.00 | 0.00 | 42 | 1007.9 |
| 20260505014629 | 75 | 259 | 0.0 | 0.0 | 0.00 | 0.00 | 0.00 | 40 | 1007.9 |
| 20260505014124 | 75 | 285 | 0.0 | 0.0 | 0.00 | 0.00 | 0.00 | 42 | 1007.9 |
| 20260505013620 | 75 | 285 | 0.0 | 0.0 | 0.00 | 0.00 | 0.00 | 41 | 1007.9 |
| 20260505013111 | 76 | 223 | 0.0 | 0.0 | 0.00 | 0.00 | 0.00 | 42 | 1007.9 |
| 20260505012605 | 76 | 223 | 0.0 | 0.0 | 0.00 | 0.00 | 0.00 | 42 | 1008.0 |
| 20260505012314 | 76 | 194 | 0.0 | 0.0 | 0.00 | 0.00 | 0.00 | 42 | 1008.0 |
| 20260505011556 | 76 | 227 | 0.0 | 0.0 | 0.00 | 0.00 | 0.00 | 39 | 1007.9 |
| 20260505011047 | 76 | 273 | 0.0 | 0.0 | 0.00 | 0.00 | 0.00 | 37 | 1007.9 |
| 20260505010541 | 76 | 281 | 0.0 | 0.0 | 0.00 | 0.00 | 0.00 | 39 | 1008.0 |
| 20260505010035 | 77 | 259 | 0.0 | 0.0 | 0.00 | 0.00 | 0.00 | 40 | 1008.0 |
| 20260505005532 | 77 | 11 | 0.0 | 0.0 | 0.00 | 0.00 | 0.00 | 40 | 1008.0 |
| 20260505005020 | 77 | 157 | 0.0 | 0.0 | 0.00 | 0.00 | 0.00 | 39 | 1008.0 |
| 20260505004517 | 77 | 63 | 0.0 | 0.0 | 0.00 | 0.00 | 0.00 | 38 | 1008.0 |
| 20260505004011 | 77 | 355 | 0.0 | 0.0 | 0.00 | 0.00 | 0.00 | 37 | 1008.0 |
| 20260505003506 | 78 | 289 | 0.0 | 1.7 | 0.00 | 0.00 | 0.00 | 39 | 1007.9 |
| 20260505003000 | 78 | 294 | 0.0 | 1.7 | 0.00 | 0.00 | 0.00 | 37 | 1007.9 |
| 20260505002452 | 78 | 23 | 0.0 | 0.9 | 0.00 | 0.00 | 0.00 | 38 | 1007.9 |
| 20260505001947 | 78 | 253 | 0.0 | 7.8 | 0.00 | 0.00 | 0.00 | 38 | 1007.9 |
| 20260505001711 | 78 | 165 | 0.0 | 7.8 | 0.00 | 0.00 | 0.00 | 35 | 1007.9 |
| 20260505000935 | 78 | 284 | 0.0 | 0.9 | 0.00 | 0.00 | 0.00 | 34 | 1007.9 |
| 20260505000429 | 79 | 277 | 0.0 | 0.0 | 0.00 | 0.00 | 0.00 | 36 | 1007.9 |
| 20260505000406 | 79 | 36 | 0.0 | 0.0 | 0.00 | 0.00 | 0.00 | 36 | 1007.9 |
| 20260504235420 | 79 | 248 | 0.0 | 0.0 | 0.00 | 0.00 | 0.00 | 35 | 1008.0 |
| 20260504234908 | 79 | 5 | 0.0 | 0.0 | 0.00 | 0.00 | 0.00 | 36 | 1007.9 |
| 20260504234405 | 80 | 236 | 0.0 | 0.0 | 0.00 | 0.00 | 0.00 | 34 | 1007.9 |
| 20260504233855 | 80 | 301 | 0.0 | 0.0 | 0.00 | 0.00 | 0.00 | 35 | 1007.9 |
| 20260504233355 | 81 | 126 | 0.0 | 0.0 | 0.00 | 0.00 | 0.00 | 35 | 1008.0 |
| 20260504232847 | 81 | 227 | 0.0 | 0.0 | 0.00 | 0.00 | 0.00 | 34 | 1007.9 |
| 20260504232341 | 82 | 65 | 0.0 | 0.0 | 0.00 | 0.00 | 0.00 | 34 | 1007.9 |
| 20260504232058 | 82 | 5 | 0.0 | 0.0 | 0.00 | 0.00 | 0.00 | 35 | 1008.0 |
| 20260504231331 | 82 | 190 | 0.0 | 0.0 | 0.00 | 0.00 | 0.00 | 33 | 1008.0 |
| 20260504230823 | 82 | 109 | 0.0 | 0.9 | 0.00 | 0.00 | 0.00 | 34 | 1008.0 |
| 20260504230317 | 82 | 256 | 0.0 | 0.9 | 0.00 | 0.00 | 0.00 | 33 | 1008.0 |
| 20260504225811 | 82 | 332 | 0.0 | 0.0 | 0.00 | 0.00 | 0.00 | 35 | 1008.0 |
| 20260504225308 | 82 | 159 | 0.0 | 0.0 | 0.00 | 0.00 | 0.00 | 33 | 1008.1 |
| 20260504224759 | 83 | 70 | 0.0 | 4.3 | 0.00 | 0.00 | 0.00 | 32 | 1008.2 |
| 20260504224517 | 83 | 256 | 0.0 | 4.3 | 0.00 | 0.00 | 0.00 | 33 | 1008.3 |
| 20260504223747 | 82 | 223 | 0.0 | 6.1 | 0.00 | 0.00 | 0.00 | 35 | 1008.4 |
| 20260504223243 | 82 | 132 | 0.0 | 6.1 | 0.00 | 0.00 | 0.00 | 33 | 1008.4 |
| 20260504222737 | 82 | 202 | 0.0 | 0.0 | 0.00 | 0.00 | 0.00 | 41 | 1008.4 |
| 20260504222453 | 83 | 35 | 0.0 | 0.0 | 0.00 | 0.00 | 0.00 | 41 | 1008.5 |
| 20260504221728 | 83 | 175 | 0.0 | 0.0 | 0.00 | 0.00 | 0.00 | 34 | 1008.5 |
| 20260504221505 | 83 | 331 | 0.0 | 0.0 | 0.00 | 0.00 | 0.00 | 35 | 1008.5 |
| 20260504220947 | 82 | 107 | 0.0 | 0.0 | 0.00 | 0.00 | 0.00 | 37 | 1008.4 |
| 20260504220225 | 82 | 149 | 0.0 | 0.0 | 0.00 | 0.00 | 0.00 | 39 | 1008.5 |
| 20260504215729 | 82 | 104 | 0.0 | 0.0 | 0.00 | 0.00 | 0.00 | 33 | 1008.5 |
| 20260504215226 | 81 | 194 | 0.0 | 0.0 | 0.00 | 0.00 | 0.00 | 35 | 1008.6 |
| 20260504214726 | 82 | 71 | 0.0 | 0.0 | 0.00 | 0.00 | 0.00 | 32 | 1008.6 |
| 20260504214504 | 82 | 355 | 0.0 | 0.0 | 0.00 | 0.00 | 0.00 | 34 | 1008.5 |
| 20260504213727 | 81 | 83 | 0.0 | 0.0 | 0.00 | 0.00 | 0.00 | 37 | 1008.6 |
| 20260504213228 | 81 | 97 | 0.0 | 2.6 | 0.00 | 0.00 | 0.00 | 38 | 1008.5 |
| 20260504212731 | 81 | 172 | 0.0 | 8.7 | 0.00 | 0.00 | 0.00 | 33 | 1008.6 |
| 20260504212227 | 81 | 302 | 0.0 | 8.7 | 0.00 | 0.00 | 0.00 | 37 | 1008.7 |
| 20260504211725 | 81 | 166 | 0.0 | 0.0 | 0.00 | 0.00 | 0.00 | 36 | 1008.6 |
| 20260504211225 | 81 | 192 | 0.0 | 0.0 | 0.00 | 0.00 | 0.00 | 35 | 1008.6 |
| 20260504210728 | 80 | 238 | 0.0 | 0.0 | 0.00 | 0.00 | 0.00 | 36 | 1008.7 |
| 20260504210226 | 80 | 67 | 0.0 | 9.6 | 0.00 | 0.00 | 0.00 | 37 | 1008.6 |
| 20260504205956 | 80 | 82 | 0.0 | 9.6 | 0.00 | 0.00 | 0.00 | 34 | 1008.7 |
| 20260504205226 | 80 | 294 | 0.0 | 0.9 | 0.00 | 0.00 | 0.00 | 33 | 1008.7 |
| 20260504204726 | 80 | 343 | 0.0 | 0.9 | 0.00 | 0.00 | 0.00 | 31 | 1008.9 |
| 20260504204228 | 80 | 348 | 0.0 | 4.3 | 0.00 | 0.00 | 0.00 | 32 | 1008.8 |
| 20260504203728 | 80 | 95 | 0.0 | 4.3 | 0.00 | 0.00 | 0.00 | 33 | 1008.7 |
| 20260504203227 | 80 | 51 | 0.0 | 2.6 | 0.00 | 0.00 | 0.00 | 37 | 1008.8 |
| 20260504202951 | 79 | 0 | 0.0 | 0.9 | 0.00 | 0.00 | 0.00 | 35 | 1008.7 |
| 20260504202225 | 79 | 18 | 0.0 | 2.6 | 0.00 | 0.00 | 0.00 | 39 | 1008.8 |
| 20260504201723 | 79 | 157 | 0.0 | 6.1 | 0.00 | 0.00 | 0.00 | 39 | 1008.7 |
| 20260504201225 | 79 | 186 | 0.0 | 6.1 | 0.00 | 0.00 | 0.00 | 36 | 1008.7 |
| 20260504200724 | 78 | 158 | 0.0 | 6.1 | 0.00 | 0.00 | 0.00 | 38 | 1008.8 |
| 20260504200225 | 78 | 141 | 0.0 | 6.1 | 0.00 | 0.00 | 0.00 | 40 | 1008.9 |
| 20260504195724 | 78 | 131 | 0.0 | 0.0 | 0.00 | 0.00 | 0.00 | 44 | 1008.9 |
| 20260504195444 | 78 | 51 | 0.0 | 0.0 | 0.00 | 0.00 | 0.00 | 38 | 1008.9 |
| 20260504194721 | 78 | 42 | 0.0 | 0.0 | 0.00 | 0.00 | 0.00 | 38 | 1009.0 |
| 20260504194220 | 78 | 16 | 0.0 | 0.0 | 0.00 | 0.00 | 0.00 | 38 | 1009.2 |
| 20260504193721 | 78 | 126 | 0.0 | 3.5 | 0.00 | 0.00 | 0.00 | 42 | 1009.0 |
| 20260504193221 | 78 | 86 | 0.0 | 3.5 | 0.00 | 0.00 | 0.00 | 38 | 1009.1 |
| 20260504192721 | 78 | 133 | 0.0 | 0.9 | 0.00 | 0.00 | 0.00 | 39 | 1009.1 |
| 20260504192214 | 78 | 192 | 0.0 | 0.9 | 0.00 | 0.00 | 0.00 | 43 | 1009.2 |
| 20260504191709 | 78 | 334 | 0.0 | 0.9 | 0.00 | 0.00 | 0.00 | 41 | 1009.2 |
| 20260504191703 | 77 | 191 | 0.0 | 0.0 | 0.00 | 0.00 | 0.00 | 41 | 1009.3 |
| 20260504190656 | 77 | 142 | 0.0 | 0.0 | 0.00 | 0.00 | 0.00 | 39 | 1009.3 |
| 20260504190150 | 76 | 114 | 0.0 | 0.9 | 0.00 | 0.00 | 0.00 | 39 | 1009.3 |
| 20260504185645 | 76 | 133 | 0.0 | 0.9 | 0.00 | 0.00 | 0.00 | 38 | 1009.4 |
| 20260504185138 | 76 | 44 | 0.0 | 0.0 | 0.00 | 0.00 | 0.00 | 40 | 1009.3 |
| 20260504184631 | 76 | 221 | 0.0 | 1.7 | 0.00 | 0.00 | 0.00 | 46 | 1009.4 |
| 20260504184126 | 76 | 111 | 0.0 | 5.2 | 0.00 | 0.00 | 0.00 | 44 | 1009.4 |
| 20260504183620 | 76 | 178 | 0.0 | 5.2 | 0.00 | 0.00 | 0.00 | 44 | 1009.5 |
| 20260504183114 | 76 | 190 | 0.0 | 0.0 | 0.00 | 0.00 | 0.00 | 46 | 1009.7 |
| 20260504182609 | 75 | 240 | 0.0 | 0.0 | 0.00 | 0.00 | 0.00 | 45 | 1009.7 |
| 20260504182101 | 75 | 159 | 0.0 | 0.0 | 0.00 | 0.00 | 0.00 | 49 | 1009.8 |
| 20260504181556 | 75 | 155 | 0.0 | 0.0 | 0.00 | 0.00 | 0.00 | 45 | 1009.8 |
| 20260504181050 | 74 | 82 | 0.0 | 2.6 | 0.00 | 0.00 | 0.00 | 47 | 1009.8 |
| 20260504180817 | 74 | 135 | 0.0 | 2.6 | 0.00 | 0.00 | 0.00 | 47 | 1009.7 |
| 20260504180039 | 74 | 312 | 0.0 | 1.7 | 0.00 | 0.00 | 0.00 | 47 | 1009.7 |
| 20260504175532 | 74 | 166 | 0.0 | 0.0 | 0.00 | 0.00 | 0.00 | 46 | 1009.7 |
| 20260504175026 | 74 | 343 | 0.0 | 1.7 | 0.00 | 0.00 | 0.00 | 45 | 1009.7 |
| 20260504174522 | 74 | 215 | 0.0 | 4.3 | 0.00 | 0.00 | 0.00 | 50 | 1009.7 |
| 20260504174014 | 73 | 154 | 0.0 | 4.3 | 0.00 | 0.00 | 0.00 | 46 | 1009.7 |
| 20260504173507 | 72 | 296 | 0.0 | 1.7 | 0.00 | 0.00 | 0.00 | 51 | 1009.7 |
| 20260504173002 | 72 | 281 | 0.0 | 1.7 | 0.00 | 0.00 | 0.00 | 49 | 1009.7 |
| 20260504172457 | 71 | 241 | 0.0 | 0.9 | 0.00 | 0.00 | 0.00 | 52 | 1009.5 |
| 20260504171950 | 71 | 133 | 0.0 | 0.9 | 0.00 | 0.00 | 0.00 | 50 | 1009.7 |
| 20260504171444 | 70 | 159 | 0.0 | 0.0 | 0.00 | 0.00 | 0.00 | 53 | 1009.7 |
| 20260504171155 | 69 | 153 | 0.0 | 0.9 | 0.00 | 0.00 | 0.00 | 57 | 1009.7 |
| 20260504170433 | 67 | 124 | 0.0 | 0.9 | 0.00 | 0.00 | 0.00 | 65 | 1009.7 |
| 20260504150809 | 51 | 111 | 0.0 | 0.0 | 0.00 | 0.00 | 0.00 | 89 | 1009.4 |
| 20260504150527 | 51 | 111 | 0.0 | 0.0 | 0.00 | 0.00 | 0.00 | 90 | 1009.4 |
| 20260504141300 | 49 | 82 | 0.0 | 0.0 | 0.00 | 0.00 | 0.00 | 91 | 1009.2 |
| 20260504141031 | 49 | 82 | 0.0 | 0.0 | 0.00 | 0.00 | 0.00 | 91 | 1009.3 |
| 20260504140302 | 49 | 77 | 0.0 | 0.0 | 0.00 | 0.00 | 0.00 | 90 | 1009.3 |
| 20260504130756 | 49 | 191 | 0.0 | 0.0 | 0.00 | 0.00 | 0.00 | 88 | 1009.0 |
| 20260504130255 | 49 | 191 | 0.0 | 0.0 | 0.00 | 0.00 | 0.00 | 87 | 1009.0 |
| 20260504120207 | 50 | 191 | 0.0 | 0.0 | 0.00 | 0.00 | 0.00 | 86 | 1008.9 |
| 20260504110601 | 51 | 191 | 0.0 | 0.0 | 0.00 | 0.00 | 0.00 | 85 | 1008.9 |
| 20260504100510 | 52 | 210 | 0.0 | 0.0 | 0.00 | 0.00 | 0.00 | 83 | 1008.9 |
| 20260504081929 | 54 | 186 | 0.0 | 0.0 | 0.00 | 0.00 | 0.00 | 82 | 1009.0 |
| 20260504081423 | 54 | 186 | 0.0 | 0.0 | 0.00 | 0.00 | 0.00 | 82 | 1009.0 |
| 20260504081146 | 54 | 186 | 0.0 | 0.0 | 0.00 | 0.00 | 0.00 | 83 | 1009.0 |
| 20260504080413 | 54 | 186 | 0.0 | 0.0 | 0.00 | 0.00 | 0.00 | 82 | 1009.0 |
| 20260504070255 | 55 | 186 | 0.0 | 0.0 | 0.00 | 0.00 | 0.00 | 81 | 1009.1 |
| 20260504060145 | 58 | 168 | 0.0 | 0.0 | 0.00 | 0.00 | 0.00 | 80 | 1009.0 |
| 20260504050541 | 61 | 168 | 0.0 | 0.0 | 0.00 | 0.00 | 0.00 | 75 | 1009.0 |
| 20260504045528 | 62 | 168 | 0.0 | 0.0 | 0.00 | 0.00 | 0.00 | 74 | 1009.0 |
| 20260504045245 | 62 | 168 | 0.0 | 0.0 | 0.00 | 0.00 | 0.00 | 73 | 1008.9 |
| 20260504044517 | 62 | 168 | 0.0 | 0.0 | 0.00 | 0.00 | 0.00 | 74 | 1008.9 |
| 20260504044226 | 63 | 168 | 0.0 | 0.0 | 0.00 | 0.00 | 0.00 | 72 | 1008.8 |
| 20260504043504 | 63 | 168 | 0.0 | 0.0 | 0.00 | 0.00 | 0.00 | 71 | 1008.8 |
| 20260504043221 | 64 | 168 | 0.0 | 0.0 | 0.00 | 0.00 | 0.00 | 70 | 1008.7 |
| 20260504042709 | 64 | 168 | 0.0 | 0.0 | 0.00 | 0.00 | 0.00 | 69 | 1008.7 |
| 20260504041943 | 65 | 168 | 0.0 | 0.0 | 0.00 | 0.00 | 0.00 | 68 | 1008.7 |
| 20260504041443 | 65 | 168 | 0.0 | 0.0 | 0.00 | 0.00 | 0.00 | 67 | 1008.5 |
| 20260504040939 | 66 | 168 | 0.0 | 0.0 | 0.00 | 0.00 | 0.00 | 65 | 1008.5 |